Погода в Мостках

Украина / Луганская область     49°20′32″N   38°30′11″E
темп.,
°C
ветер,
м/с
пор.,
м/с
влажн.,
%
обл.,
%
осадки,
мм/ч
давл.,
гПа
погр.,
м
22 мая, вс
вс2200:00+14юз41098100 2.3 1002442
03:00+16зюз81493100 3.8 999739
06:00+14зюз91489100 0.1 999922
09:00+14з81389100 0.3 999978
12:00+15з91268100 0.2 9981551
15:00+14з8117096 0.3 9991438
18:00+14з8127012 0.3 9981373
21:00+11з61084100 0.4 999594
23 мая, пн
пн2300:00+10з6989100 0.2 999675
03:00+7ссз511925 0.4 1001441
06:00+9сз3983100 0.0 1003602
09:00+12с67635 0.1 10051334
12:00+14с5549100 0.2 10052146
15:00+15с454368 0.2 10062214
18:00+14с565327 0.0 10071222
21:00+8ссв497016 0.0 1009183
24 мая, вт
вт2400:00+6св22765 0.0 101018
03:00+5зсз11775 0.0 101110
06:00+6сз23755 0.0 101289
09:00+12сз34555 0.0 1012870
12:00+15зсз4546100 0.0 10112175
15:00+14з365289 0.0 10121356
18:00+15з355211 0.0 1012896
21:00+10сз347787 0.0 101460
25 мая, ср
ср2500:00+8зсз348921 0.0 101554
03:00+7з489366 0.0 1015137
06:00+9зсз410885 0.0 1016280
09:00+15сз5866100 0.0 1017716
12:00+18сз7955100 0.6 10172061
15:00+19сз6104788 0.8 10172151
18:00+17сз5966100 0.6 1018497
21:00+12зсз338195 1.0 101922
26 мая, чт
чт2600:00+13зюз358490 0.1 101891
03:00+12зюз358393 0.1 101888
06:00+12юз3979100 0.0 1018201
09:00+16юз596799 0.0 1017437
12:00+21зюз8104663 0.0 10162529
15:00+21зюз91250100 0.0 10142254
18:00+14зюз91668100 0.1 10141066
21:00+12зюз91586100 1.6 1013948